This demonstration page uses our WeatherBlox Daily Observations layout. Learn more.

Left ArrowRight Arrow

Hourly Observations for April 12, 2016

Temp ( °F °C ) Dew Point ( °F °C ) Humidity (%) Winds ( mph kmh ) Pressure ( in mb ) Visibility ( mi km ) Precip ( " mm )
12:51 am 00:51 Cloudy with Light Rain 58 14.4 48 8.9 70 70 N 5 7 29.95 1014 10 16 0.00 0.03
12:59 am 00:59 Mostly Cloudy with Nearby Thunderstorms 58 14.4 48 8.9 70 70 N 7 11 29.94 1014 10 16 0.00 0.03
1:14 am 01:14 Mostly Cloudy 59 15 46 7.8 62 62 NE 7 11 29.94 1014 10 16 0.00 0.03
1:51 am 01:51 Mostly Clear 60 15.6 43 6.1 53 53 E 8 13 29.93 1014 10 16 0.00 0.03
2:51 am 02:51 Mostly Clear 56 13.3 47 8.3 72 72 NNW 7 11 29.93 1014 10 16 0.00 0.00
3:51 am 03:51 Partly Cloudy 54 12.2 47 8.3 77 77 N 3 6 29.94 1014 10 16 0.00 0.00
4:51 am 04:51 Clear 53 11.7 47 8.3 80 80 Calm 29.95 1014 10 16 0.00 0.00
5:51 am 05:51 Clear 52 11.1 47 8.3 83 83 Calm 29.97 1015 10 16 0.00 0.00
6:51 am 06:51 Cloudy 55 12.8 48 8.9 77 77 NW 7 11 30.02 1017 10 16 0.00 0.00
7:51 am 07:51 Mostly Cloudy 57 13.9 45 7.2 64 64 NNW 22 35 30.04 1017 10 16 0.00 0.00
8:51 am 08:51 Cloudy with Light Rain 54 12.2 47 8.3 77 77 N 10 17 30.07 1018 5 8 0.02 0.51
9:51 am 09:51 Cloudy with Light Rain 55 12.8 47 8.3 74 74 SW 9 15 30.09 1019 10 16 0.00 0.03
10:51 am 10:51 Sunny 60 15.6 46 7.8 60 60 S 7 11 30.06 1018 10 16 0.00 0.03
11:51 am 11:51 Sunny 64 17.8 43 6.1 46 46 VRB 3 6 30.04 1017 10 16 0.00 0.00
12:51 pm 12:51 Mostly Sunny 67 19.4 40 4.4 37 37 NW 5 7 30.01 1016 10 16 0.00 0.00
1:51 pm 13:51 Sunny 69 20.6 40 4.4 35 35 VRB 5 7 29.99 1016 10 16 0.00 0.00
2:51 pm 14:51 Sunny 70 21.1 38 3.3 31 31 VRB 7 11 29.97 1015 10 16 0.00 0.00
3:51 pm 15:51 Sunny 73 22.8 38 3.3 28 28 NNW 8 13 29.96 1014 10 16 0.00 0.00
4:51 pm 16:51 Cloudy 72 22.2 40 4.4 31 31 NE 13 20 29.97 1015 10 16 0.00 0.00
5:51 pm 17:51 Sunny 69 20.6 41 5 36 36 ESE 8 13 29.98 1015 10 16 0.00 0.00
6:51 pm 18:51 Clear 66 18.9 43 6.1 43 43 ESE 8 13 29.98 1015 10 16 0.00 0.00
7:51 pm 19:51 Clear 63 17.2 44 6.7 50 50 SSE 6 9 30.00 1016 10 16 0.00 0.00
8:51 pm 20:51 Clear 61 16.1 46 7.8 58 58 SSW 3 6 30.03 1017 10 16 0.00 0.00
9:51 pm 21:51 Clear 57 13.9 48 8.9 72 72 WNW 5 7 30.05 1018 10 16 0.00 0.00
10:51 pm 22:51 Clear 58 14.4 47 8.3 67 67 Calm 30.04 1017 10 16 0.00 0.00
11:51 pm 23:51 Clear 53 11.7 47 8.3 80 80 NE 3 6 30.05 1018 10 16 0.00 0.00

Powered by AerisWeather